Regional Weather Roundup
Issued by NWS

Home | Current Version | Previous Version | Graphics & Text | Print | Product List | Glossary On
Versions: 1 2 3 4 5 6 7 8 9 10 11 12 13 14 15 16 17 18 19 20 21 22 23 24 25 26 27 28 29 30 31 32 33 34 35 36 37 38 39 40 41 42 43 44 45 46 47 48 49 50
000
ASUS43 KOAX 191402
RWRNE

WEATHER ROUNDUP FOR NEBRASKA
NATIONAL WEATHER SERVICE OMAHA NE
900 AM CDT SAT AUG 19 2017

NOTES: SATELLITE DATA IS BEING USED TO AUGMENT CLOUD COVER ABOVE
       12000 FEET.
       "FAIR" INDICATES FEW OR NO CLOUDS BELOW 12,000 FEET WITH NO
       SIGNIFICANT WEATHER AND/OR OBSTRUCTIONS TO VISIBILITY.


NEZ001>004-019>022-054>056-191500-
NEBRASKA PANHANDLE

CITY           SKY/WX    TMP DP  RH WIND       PRES   REMARKS
SCOTTSBLUFF    SUNNY     68  55  63 CALM      29.98S
ALLIANCE       SUNNY     69  57  65 S8        29.96S
CHADRON        SUNNY     68  52  56 SW7       29.92F
GORDON         FAIR      71  56  59 SW9       29.93F
KIMBALL        SUNNY     66  54  65 W7        30.06S
SIDNEY         SUNNY     73  57  57 SW15      30.03F
$$

NEZ057>060-069>072-079>082-191500-
SOUTHWEST NEBRASKA

CITY           SKY/WX    TMP DP  RH WIND       PRES   REMARKS
NORTH PLATTE   SUNNY     64  61  90 E6        29.99F
IMPERIAL       SUNNY     68  57  68 SW6       30.01S
LEXINGTON      SUNNY     68  62  82 SE6       29.99F
MCCOOK         SUNNY     66  59  78 CALM      29.99S
OGALLALA       SUNNY     67  59  76 W5        30.00S
$$

NEZ005>010-023>029-035>040-094-191500-
NORTH CENTRAL NEBRASKA

CITY           SKY/WX    TMP DP  RH WIND       PRES   REMARKS
VALENTINE      SUNNY     70  55  59 S10       29.94F
AINSWORTH      SUNNY     68  58  71 S16       29.96S
BROKEN BOW     SUNNY     67  61  81 SE5       29.99F
O`NEILL        SUNNY     65  60  82 S8        29.98S
ORD            SUNNY     64  58  80 CALM      29.98S
THEDFORD       SUNNY     67  60  78 SE7       29.97F
$$

NEZ041-046>049-061>064-073>077-083>087-191500-
SOUTH CENTRAL NEBRASKA

CITY           SKY/WX    TMP DP  RH WIND       PRES   REMARKS
GRAND ISLAND   SUNNY     67  62  84 SE5       30.00R
AURORA         SUNNY     66  63  89 SE6       29.99S
HASTINGS       SUNNY     70  62  76 S6        30.00S
HEBRON         SUNNY     69  65  86 CALM      29.99S
HOLDREGE       SUNNY     66  62  86 SE3       30.00S
KEARNEY        SUNNY     67  64  90 SE6       30.00F
YORK           SUNNY     68  63  83 SE5       29.99F
$$

NEZ011>018-030>034-042>045-191500-
NORTHEAST NEBRASKA

CITY           SKY/WX    TMP DP  RH WIND       PRES   REMARKS
NORFOLK        SUNNY     64  60  87 E3        29.97F
ALBION         SUNNY     63  61  91 CALM      29.99S
BLAIR          SUNNY     66  61  85 CALM      29.99R
COLUMBUS       SUNNY     66  61  84 E3        30.00S
FREMONT        SUNNY     65  60  86 CALM      30.00R
TEKAMAH        SUNNY     65  61  87 NE3       29.98S
WAYNE          SUNNY     60  58  91 CALM      29.98F
$$

NEZ050>053-065>068-078-088>093-191500-
SOUTHEAST NEBRASKA

CITY           SKY/WX    TMP DP  RH WIND       PRES   REMARKS
LINCOLN        SUNNY     68  62  81 N5        29.99F
OMAHA EPPLEY   SUNNY     66  60  81 CALM      29.99R
BEATRICE       SUNNY     69  62  80 CALM      29.99F
FALLS CITY     SUNNY     70  64  81 N3        29.97S
NEBRASKA CITY  SUNNY     69  66  90 N3        29.99S
PLATTSMOUTH    SUNNY     65  62  87 W3        29.99S
$$

NEZ044-045-051>053-067-191500-
OMAHA AREA

CITY           SKY/WX    TMP DP  RH WIND       PRES   REMARKS
OMAHA EPPLEY   SUNNY     66  60  81 CALM      29.99R
BLAIR          SUNNY     66  61  85 CALM      29.99R
FREMONT        SUNNY     65  60  86 CALM      30.00R
MILLARD        SUNNY     68  61  77 CALM      29.99R
OFFUTT AFB     SUNNY     67  60  77 CALM      29.98S
PLATTSMOUTH    SUNNY     65  62  87 W3        29.99S
WAHOO          FAIR      65  62  89 N3        29.99S
$$




USA.gov is the U.S. government's official web portal to all federal, state and local government web resources and services.